Lapse_Rate
5.3 5.2 5.1 5.0 5.0 4.9 4.8 4.7 4.7 4.7 4.9 5.3 5.2 5.1 5.1 5.1 5.2 5.2 5.1 5.0 4.9 4.6 4.4 4.2 4.1 3.9 3.9 4.0 4.2 4.3 4.4 4.5 4.6 4.6 4.8 4.8 5.1 5.3
5.0 4.9 4.8 4.8 4.8 4.7 4.7 4.6 4.5 4.6 4.7 4.6 4.5 4.5 4.6 4.6 4.6 4.6 4.7 4.7 4.7 4.8 4.8 4.8 4.7 4.6 4.5 4.4 4.3 4.3 4.4 4.5 4.6 4.7 4.8 5.0 5.1 5.1
4.8 4.7 4.7 4.7 4.7 4.6 4.6 4.6 4.4 4.4 4.5 4.6 4.4 4.3 4.2 4.2 4.2 4.2 4.2 4.2 4.3 4.3 4.3 4.3 4.3 4.4 4.5 4.5 4.6 4.6 4.6 4.6 4.8 4.8 4.9 5.0 5.2 5.3
4.6 4.6 4.6 4.6 4.6 4.6 4.5 4.5 4.4 4.4 4.3 4.4 4.2 4.2 4.1 4.1 4.0 4.0 4.0 4.0 3.9 4.0 4.1 4.3 4.5 4.6 4.7 4.6 4.7 5.0 5.2 5.2 5.1 5.1 5.1 5.1 5.1 5.3
4.6 4.6 4.6 4.6 4.6 4.6 4.6 4.5 4.3 4.3 4.3 4.2 4.2 4.0 4.0 4.1 4.1 4.0 3.8 3.8 3.6 3.9 4.4 4.6 4.6 4.7 5.0 5.2 5.2 5.0 4.9 4.9 5.1 5.3 5.4 5.6 5.7 5.9
4.5 4.5 4.6 4.6 4.6 4.5 4.3 4.3 4.3 4.2 4.1 4.1 4.1 4.1 4.0 3.8 3.5 3.3 3.5 3.7 3.8 4.0 4.0 4.5 4.6 4.9 5.1 5.0 4.8 4.8 5.0 5.1 5.0 5.0 5.2 5.4 5.6 5.8
4.6 4.6 4.6 4.4 4.3 4.2 4.1 4.0 3.9 3.9 3.8 3.7 3.7 3.7 3.7 3.6 3.6 3.7 3.8 3.7 3.5 3.4 3.5 3.8 3.7 4.0 4.4 4.5 4.6 4.6 4.7 5.0 5.0 5.0 5.0 5.1 5.5 5.7
4.7 4.5 4.5 4.3 4.2 4.1 3.9 3.9 3.8 3.7 3.4 3.2 3.2 3.3 3.4 3.3 3.1 3.1 3.0 3.3 3.6 3.9 3.8 4.2 4.1 4.5 4.6 4.8 5.0 4.9 4.9 5.0 4.9 4.9 4.8 4.9 5.0 5.2
4.5 4.5 4.4 4.3 4.2 4.1 4.0 3.8 3.5 3.4 3.3 3.3 3.4 3.4 3.4 3.3 3.5 3.8 4.0 3.9 4.0 4.2 4.1 4.7 4.9 5.2 5.6 6.1 6.2 6.2 6.1 5.9 5.8 5.7 5.5 5.2 5.1 5.0
4.5 4.4 4.2 4.2 3.9 3.7 3.5 3.5 3.3 3.2 3.5 4.0 4.2 4.3 4.3 4.3 4.0 3.8 4.0 4.3 5.2 5.4 5.1 5.4 5.9 6.4 6.9 7.1 7.1 7.0 6.9 6.8 6.8 6.7 6.7 6.6 6.6 6.3
4.5 4.3 4.0 3.7 3.6 3.5 3.3 3.3 3.7 3.9 4.4 4.6 4.6 4.7 4.5 4.5 4.6 4.6 4.8 5.0 5.9 6.5 6.6 6.6 7.1 7.5 7.8 7.9 7.8 7.7 7.7 7.7 7.8 7.8 7.7 7.6 7.4 7.1
4.2 3.9 3.8 3.5 3.4 3.4 3.9 3.9 4.1 4.6 4.9 5.0 5.1 4.9 5.1 5.1 4.8 4.5 4.4 4.8 5.6 6.7 6.8 6.8 7.2 7.0 7.9 7.9 7.9 7.5 7.4 7.4 7.6 7.8 7.8 7.8 7.7 7.7
4.2 3.8 3.6 3.7 3.7 4.0 3.9 4.3 4.6 4.9 5.0 5.0 5.0 5.1 5.1 5.0 5.0 4.7 4.6 4.5 4.9 5.9 6.1 5.8 6.6 6.8 6.9 7.8 7.9 7.7 7.7 7.7 7.8 7.9 7.7 7.7 7.9 8.0
3.9 3.9 3.9 3.9 3.9 4.1 4.4 4.7 5.0 5.0 4.9 5.0 5.2 5.0 4.9 4.9 5.0 4.9 4.8 4.7 4.8 4.9 5.2 5.6 6.1 6.5 7.0 7.8 8.0 8.0 7.9 7.8 7.8 7.9 7.8 7.9 8.0 8.0
4.2 4.0 3.9 4.1 4.4 4.6 4.7 4.9 4.9 4.7 5.0 5.3 5.5 5.4 5.2 4.9 4.8 4.7 4.7 4.7 5.0 4.7 4.8 5.3 6.1 6.9 7.1 7.5 7.9 7.9 7.8 8.0 7.7 7.9 8.1 8.0 8.1 8.1
4.3 4.4 4.6 4.6 4.4 4.4 4.8 5.0 5.0 5.5 5.8 5.7 5.6 5.5 5.3 5.1 4.9 4.8 5.1 5.1 5.3 5.3 4.8 5.3 6.4 7.1 7.6 7.7 7.8 7.7 7.6 7.6 7.7 7.6 7.6 7.6 7.7 7.8
4.5 4.4 4.4 4.4 4.4 4.8 5.3 5.2 5.6 5.9 6.0 5.7 5.5 5.3 5.2 5.1 4.9 4.9 5.0 5.1 5.3 5.7 5.8 5.8 6.3 7.0 7.4 7.7 7.9 7.5 7.5 7.4 7.2 7.2 7.3 7.2 7.2 7.5
4.1 3.9 3.9 4.1 4.5 5.1 5.2 5.6 6.1 6.3 6.1 5.8 5.5 5.3 5.3 5.2 5.1 4.9 5.0 5.0 5.3 5.5 5.8 6.1 6.6 7.0 7.1 7.0 7.2 7.5 7.4 7.2 7.1 7.1 7.0 6.9 6.9 7.2
3.9 3.9 4.3 4.7 5.1 5.3 5.7 6.2 6.3 6.4 6.1 5.8 5.4 5.2 5.1 5.0 5.0 5.0 5.1 5.3 5.4 5.5 5.6 5.8 6.2 6.7 7.2 7.5 7.5 7.2 7.4 7.2 7.1 6.9 7.0 6.9 6.8 6.7
4.1 4.4 4.8 5.1 5.2 5.9 6.3 6.6 6.6 6.3 6.1 5.8 5.5 5.2 5.1 5.1 5.1 5.2 5.2 5.4 5.6 5.7 5.7 5.6 5.9 6.0 6.3 6.7 7.3 7.0 7.0 7.1 7.1 7.0 7.0 6.9 6.9 6.9
4.5 4.9 5.1 5.2 6.0 6.6 6.8 6.6 6.4 6.1 5.9 5.7 5.3 5.2 5.1 5.1 5.0 5.0 5.1 5.1 5.3 5.4 5.5 5.4 5.5 5.7 6.0 6.2 6.4 6.5 6.4 6.7 6.9 7.0 7.0 7.0 6.7 6.7
4.9 5.3 5.3 6.0 6.7 6.9 6.8 6.5 6.3 6.0 5.8 5.5 5.2 4.9 4.8 4.8 4.9 4.9 4.9 5.0 5.0 5.0 5.2 5.2 5.2 5.4 5.5 5.7 5.9 6.1 6.3 6.2 6.2 6.3 6.2 6.3 6.4 6.6
5.4 5.3 6.0 6.6 7.0 7.0 6.7 6.4 6.2 5.9 5.6 5.3 5.0 4.8 4.7 4.7 4.6 4.6 4.6 4.6 4.7 4.9 5.1 5.2 5.1 5.2 5.4 5.6 5.7 5.9 6.0 6.2 6.2 6.2 6.0 6.2 6.2 6.3
Wind_Speed
3 2 1 1 0 1 3 3 3 4 7 5 4 5 13 18 18 19 18 20 24 24 24 25 24 23 23 24 24 25 26 27 30 30 29 29 28 28
3 3 2 1 2 2 3 3 4 6 6 4 8 12 20 20 21 22 20 20 19 22 22 23 24 24 23 23 24 25 26 27 28 31 33 33 32 32
3 3 3 2 3 3 3 3 4 4 8 10 8 11 14 14 19 23 21 20 19 20 22 23 23 25 25 26 26 25 25 26 27 29 31 32 33 34
3 3 4 4 5 4 4 6 6 7 7 14 11 10 12 13 14 14 16 18 20 20 22 23 25 25 24 25 26 26 25 25 26 27 29 29 30 34
3 4 5 5 6 6 6 6 6 6 8 10 11 10 10 10 11 10 11 15 18 20 23 27 26 25 26 27 27 27 26 27 27 27 27 27 28 29
4 4 5 6 7 8 8 9 8 9 9 9 10 11 10 9 8 9 11 10 10 18 22 26 27 28 29 26 26 25 26 28 29 28 27 27 27 28
5 5 5 8 11 10 8 9 10 9 8 9 9 9 10 10 12 10 11 11 12 11 10 10 11 16 19 22 22 25 25 27 27 27 26 27 27 28
6 7 7 9 8 12 13 13 12 9 12 11 11 12 14 13 12 11 11 13 11 7 5 10 13 11 11 18 27 29 27 27 27 27 26 26 25 26
6 7 7 6 11 9 13 15 13 17 17 14 14 14 15 15 14 14 11 8 10 11 11 11 9 11 12 19 24 28 29 29 28 28 28 27 27 26
6 7 7 9 9 12 12 12 11 12 11 9 12 15 14 13 14 12 13 13 11 10 10 12 11 12 11 16 24 27 28 26 24 24 24 24 23 26
6 6 8 9 13 18 12 12 13 12 17 21 23 23 25 28 22 10 9 10 11 11 10 10 10 12 12 11 13 17 20 22 27 26 26 26 27 27
6 7 11 13 18 19 13 12 12 13 12 12 13 15 19 18 20 12 9 10 10 11 8 8 10 9 8 9 7 12 13 21 24 24 24 25 25 10
6 7 8 17 19 20 18 12 12 15 15 11 10 10 10 10 9 12 12 8 9 9 11 8 8 9 7 11 9 10 10 11 10 13 19 21 22 17
8 7 9 16 19 18 16 18 19 17 9 9 8 9 9 9 8 9 16 15 14 11 17 13 8 10 10 12 13 9 10 9 9 9 8 14 18 17
7 12 18 16 17 12 14 17 16 9 9 9 9 9 9 9 10 9 13 16 15 17 16 17 10 11 9 11 12 12 12 9 9 7 9 8 7 6
10 5 11 13 11 11 10 9 8 8 9 9 9 9 8 7 8 8 9 8 10 9 8 14 11 8 10 9 10 12 11 6 8 8 7 8 7 5
12 7 7 8 8 8 7 8 8 8 8 8 9 9 9 9 9 9 8 9 8 8 9 8 10 11 10 12 10 9 8 8 8 8 8 7 5 4
8 7 7 8 9 9 9 9 9 10 8 8 9 8 8 9 9 8 8 8 9 9 9 9 8 9 8 6 12 8 7 7 8 8 7 5 4 4
5 6 7 8 8 8 8 8 10 8 9 9 8 8 8 8 11 9 8 8 8 9 9 8 8 8 8 8 6 6 7 6 7 7 6 5 5 5
6 7 7 8 8 8 7 9 9 8 8 8 7 8 8 8 8 8 8 9 9 9 8 8 7 7 8 8 9 8 5 5 5 6 6 6 6 9
7 7 7 7 8 7 8 8 9 9 9 8 8 7 7 7 8 8 8 15 15 8 9 9 8 18 8 7 5 6 5 6 7 6 5 4 5 3
6 7 7 7 7 7 8 8 8 8 8 8 8 8 7 7 8 9 8 9 9 8 9 8 8 7 5 4 8 9 7 5 6 8 8 8 3 3
6 7 7 7 6 7 7 7 8 8 8 8 8 7 7 7 8 8 8 8 8 8 8 8 6 5 6 6 9 7 8 8 5 7 6 9 14 16
Wind_Direction
85 78 34 38 92 260 249 242 261 299 304 306 306 308 316 316 312 312 308 309 310 309 309 306 304 300 296 292 288 285 281 277 275 270 266 264 264 264
75 57 24 340 331 307 280 266 244 262 277 291 288 303 310 312 313 315 311 306 303 304 308 307 303 301 301 298 294 290 285 281 278 273 268 264 262 260
51 17 345 336 328 312 300 289 284 267 279 294 294 299 299 302 307 311 312 313 313 310 309 305 300 298 296 294 294 290 290 286 282 278 277 276 269 263
17 351 343 341 331 324 314 307 293 293 288 299 308 307 303 304 302 301 304 307 306 303 307 305 304 299 297 297 294 290 287 286 286 283 279 275 280 275
5 352 341 337 328 324 318 309 304 298 296 295 306 312 307 307 302 296 294 303 300 295 301 298 294 296 295 294 293 292 294 293 289 282 280 281 279 275
5 356 341 335 325 322 320 315 314 309 306 301 305 311 309 306 300 302 307 306 298 291 286 283 292 298 295 295 294 294 291 288 285 280 278 275 276 275
6 352 338 329 329 332 327 319 315 310 309 309 306 307 311 313 311 313 299 299 294 291 288 290 292 293 288 293 289 293 293 290 283 281 279 279 275 270
346 342 338 331 327 325 321 312 315 322 314 310 307 307 307 314 310 305 297 299 299 330 335 295 282 285 288 286 295 301 299 296 292 286 285 284 279 273
340 335 330 322 317 309 299 304 306 314 314 310 307 304 305 306 304 297 296 313 302 308 307 296 302 285 289 292 294 294 295 296 294 290 286 282 279 274
326 315 308 307 308 313 317 318 313 310 306 302 295 298 294 294 301 309 302 301 299 305 308 294 305 293 297 295 290 290 292 296 295 294 286 284 287 288
304 296 307 313 304 324 323 318 316 312 310 305 306 307 306 309 309 310 306 307 302 305 307 292 302 302 298 293 287 284 289 292 297 294 290 290 284 281
317 305 299 318 324 321 319 322 315 314 312 320 323 315 313 309 311 306 305 303 303 304 311 302 301 309 308 299 315 296 295 293 294 292 289 289 287 280
315 322 323 320 311 313 320 321 308 313 324 324 320 313 307 302 306 304 302 296 294 287 289 297 297 293 282 301 302 300 293 294 296 293 290 289 287 284
321 318 303 301 319 325 324 317 320 328 321 317 308 311 312 307 307 303 297 288 275 271 284 286 282 290 290 293 300 305 305 299 293 288 294 290 294 291
317 305 319 327 324 322 320 330 328 319 315 312 309 310 313 308 301 296 297 297 288 280 277 278 279 284 285 292 295 299 304 306 301 300 305 299 290 291
298 325 331 329 331 328 327 318 308 309 311 312 308 306 306 304 301 301 302 302 309 300 280 293 286 284 292 286 288 296 303 301 307 309 309 304 302 291
338 335 334 337 333 324 318 316 316 313 313 311 308 311 317 319 319 318 311 313 311 310 305 311 296 285 278 275 285 288 298 303 310 316 312 314 309 304
331 325 327 319 316 315 317 316 319 322 316 319 317 312 312 313 310 311 310 305 307 304 301 305 309 316 309 279 247 278 292 301 312 318 321 309 316 348
322 318 305 306 307 308 308 319 317 315 314 313 305 307 306 304 312 308 307 302 303 302 300 302 307 306 307 305 299 283 281 301 311 314 330 325 308 317
310 306 305 306 307 306 319 316 314 313 314 304 303 309 301 301 305 305 305 305 300 302 310 308 301 300 298 304 309 308 233 282 298 306 317 321 297 286
309 301 299 301 309 308 312 310 309 307 308 312 304 302 301 302 300 301 300 309 314 308 302 305 304 305 304 292 284 292 297 240 277 301 300 303 307 302
303 299 300 297 299 304 303 303 301 303 305 305 303 302 301 302 300 303 304 306 307 305 301 299 305 309 302 290 301 302 299 311 303 285 289 270 282 287
295 300 295 295 290 299 296 298 297 297 299 299 299 299 299 300 304 307 308 313 313 310 313 312 320 326 312 309 306 310 306 310 312 310 299 281 276 276